RH
62 66 83 95 96 95 94 96 97 93 94 97 96 98 94 96 91 84 68 66 67 71 77 85 85 87 86 80 78 79 79 84 85 89 88 94 84 86 86 91 96 89 88
55 60 61 76 94 96 96 95 92 94 88 90 93 95 97 97 94 93 87 81 80 81 81 85 90 90 90 86 88 92 94 93 94 92 90 92 87 87 89 93 89 89 84
51 50 62 60 81 94 96 94 90 92 89 93 97 98 98 99 99 97 97 94 87 91 93 95 97 97 96 96 95 94 95 97 94 92 85 93 95 95 86 89 84 79 89
56 49 55 63 62 82 93 95 93 93 91 96 96 94 88 94 90 97 98 98 96 97 97 96 97 97 98 97 96 97 97 97 98 94 92 88 83 92 91 92 93 82 81
55 53 51 56 55 59 93 95 95 96 97 98 97 98 96 96 97 98 98 99 99 98 99 98 98 98 98 97 96 98 99 99 99 98 96 92 93 95 98 96 98 90 88
52 53 53 57 61 59 88 94 96 96 97 99 98 98 98 98 98 99 99 100 99 99 98 96 96 95 94 96 96 96 95 96 96 97 97 98 95 96 97 100 97 94 95
44 54 55 61 60 59 69 89 94 96 98 99 99 99 99 97 96 98 99 99 96 98 96 91 88 86 87 89 90 94 95 96 97 96 97 97 98 98 97 97 97 98 97
53 56 55 60 62 60 66 82 90 94 97 99 98 93 96 97 98 98 99 98 97 92 86 86 85 77 77 79 84 90 94 97 98 98 98 98 98 98 99 98 97 99 99
51 53 57 60 63 67 72 81 89 90 89 88 93 92 96 96 97 96 96 97 96 92 90 86 80 78 76 77 78 83 88 93 97 97 96 98 97 97 97 99 99 98 98
57 70 69 69 70 74 83 84 83 83 81 81 88 90 94 93 93 94 93 92 87 83 78 76 76 73 76 78 78 85 85 94 98 97 96 96 97 96 96 97 98 98 98
52 65 76 78 81 86 85 83 83 83 87 88 89 90 88 86 83 82 78 75 74 72 79 78 76 76 77 79 79 83 83 91 95 95 95 96 96 97 96 96 95 97 98
56 60 72 80 83 83 85 84 87 88 89 86 86 86 83 81 79 74 70 68 71 73 77 77 78 79 79 82 80 82 90 91 92 93 94 94 92 94 94 96 95 97 96
69 65 70 71 77 84 87 88 89 90 88 84 85 84 84 83 83 81 80 72 73 73 70 75 78 83 86 89 90 91 92 92 93 93 94 93 92 92 94 94 96 96 94
61 66 70 75 80 82 87 88 90 91 89 87 88 88 88 86 84 80 81 84 83 75 74 78 83 85 88 89 91 91 93 93 92 92 92 91 92 92 93 95 96 94 96
59 63 64 66 79 84 88 90 90 92 90 89 90 90 90 88 88 87 86 81 82 83 83 86 86 90 86 84 90 92 93 94 92 91 84 87 88 86 87 90 94 96 97
46 51 63 68 70 82 87 90 92 92 90 91 91 91 91 90 89 87 88 89 90 90 89 90 89 91 83 74 78 82 94 94 94 96 94 92 87 84 80 79 79 87 96
48 48 51 64 71 76 80 89 92 92 92 91 91 91 90 90 91 91 92 93 93 92 92 92 92 92 91 79 80 81 95 98 98 98 95 82 78 79 78 80 78 73 73
50 50 54 57 59 75 81 87 91 92 92 92 91 90 89 91 93 94 94 94 95 94 95 94 95 94 90 81 82 88 100 100 94 91 86 78 72 73 68 72 80 83 76
67 67 70 70 68 66 80 90 91 92 91 90 88 89 89 92 94 95 96 98 100 100 99 99 99 96 94 84 85 89 91 91 89 78 70 72 67 62 64 76 87 91 89
76 77 75 72 72 69 84 91 90 89 87 84 85 88 90 91 93 95 97 100 100 100 99 99 98 92 94 81 82 86 82 81 76 68 68 69 66 60 59 85 86 90 90
78 85 89 90 86 87 86 90 91 86 82 87 90 90 92 93 93 98 99 100 99 99 98 98 97 96 88 83 82 83 75 76 75 77 79 81 71 66 57 70 81 76 79
85 90 91 91 92 92 90 92 91 90 91 90 92 94 94 92 94 98 99 98 98 97 95 95 97 94 88 82 80 78 74 64 69 71 75 78 68 69 66 63 71 65 68
87 89 92 91 93 92 88 91 93 92 90 92 93 94 95 96 98 99 99 99 97 96 96 96 96 97 90 82 80 76 69 64 72 67 66 65 69 67 67 63 64 60 82
87 90 90 91 94 95 92 89 92 83 82 86 95 96 96 98 98 98 97 98 98 97 95 95 96 95 88 84 79 75 80 72 74 67 77 67 65 71 77 73 74 87 80
81 90 92 93 95 94 95 93 85 81 85 88 94 95 96 98 99 98 96 96 88 88 91 93 92 93 90 81 74 73 76 87 79 81 88 84 82 87 88 87 83 84 89
79 85 90 88 91 92 94 93 91 86 87 92 97 98 98 98 97 98 98 87 86 85 85 83 87 85 79 75 73 72 71 69 75 87 82 78 82 84 86 83 82 83 81
Wind_Speed
6 6 5 4 5 6 7 9 9 9 6 4 5 3 4 3 2 4 8 9 7 8 7 4 5 5 5 4 4 2 4 3 3 1 3 3 3 3 3 3 3 2 3
6 6 6 7 8 7 8 7 8 7 9 6 4 4 4 2 3 3 5 7 7 7 6 6 5 6 5 7 6 4 2 2 3 2 2 2 4 3 4 4 4 4 3
11 8 8 9 7 8 10 11 12 10 8 6 4 2 3 3 2 3 2 4 8 7 7 5 4 4 0 2 4 5 7 4 3 5 3 2 3 2 1 3 2 5 3
7 7 7 7 8 11 8 7 7 10 8 6 5 6 6 5 6 4 4 4 5 6 7 9 8 7 4 4 3 3 2 2 3 1 3 4 3 3 3 1 2 2 4
10 10 9 9 10 7 6 3 3 3 5 6 7 6 5 4 2 1 5 6 3 4 3 2 2 2 1 2 3 2 2 2 2 2 0 1 1 3 4 5 2 2 3
10 9 8 6 5 5 5 5 6 5 6 6 6 7 7 5 3 3 3 2 2 2 3 2 2 3 4 3 1 3 3 4 2 1 2 3 3 2 3 3 3 3 2
11 9 8 7 7 8 8 6 6 6 6 6 6 6 6 6 7 6 4 7 5 2 1 2 3 2 4 4 2 2 3 4 1 2 2 2 3 1 2 2 3 3 2
8 8 9 8 8 8 8 8 8 7 7 5 5 4 3 3 3 4 4 5 4 5 7 6 6 4 4 4 4 3 4 4 4 3 3 2 2 2 2 4 3 3 2
7 9 9 9 8 7 9 9 7 5 6 6 5 3 3 5 5 5 5 4 3 3 5 6 7 4 3 4 4 1 2 4 4 4 3 2 2 2 2 2 2 4 4
6 4 3 6 4 4 5 7 6 7 6 7 6 5 6 5 5 6 7 7 5 4 6 6 7 5 4 3 2 2 2 4 3 3 3 2 2 3 2 3 2 2 2
4 4 3 0 3 4 5 6 6 7 6 6 5 6 6 6 6 6 6 8 6 5 5 5 6 6 4 2 2 2 3 4 4 3 4 4 3 3 2 2 2 2 1
3 2 3 3 4 4 4 6 6 6 6 6 6 6 6 6 6 6 5 4 8 8 6 4 4 4 3 2 2 1 3 3 4 4 3 4 1 2 2 2 3 1 1
3 0 1 2 1 2 4 5 5 6 6 6 7 6 6 6 5 4 4 5 7 5 6 6 3 5 2 2 2 1 2 3 3 2 2 2 3 2 1 1 2 2 1
1 2 3 3 3 3 4 4 4 5 6 7 7 7 7 6 6 5 4 4 5 6 5 4 5 4 2 0 1 4 3 3 3 3 2 2 3 4 2 2 3 2 2
5 6 6 6 4 4 3 3 4 6 6 7 7 6 6 6 6 5 5 4 5 5 6 6 4 2 1 1 0 3 3 3 3 1 2 2 1 3 4 2 3 3 2
8 8 7 6 7 7 6 5 6 7 6 7 7 6 6 6 6 6 6 5 4 6 6 5 3 3 1 3 4 4 2 3 3 1 1 2 2 2 3 4 6 5 4
8 8 8 7 6 7 6 8 6 5 6 6 6 6 7 7 7 7 6 5 5 4 4 4 3 2 2 4 5 2 1 2 2 2 2 1 2 4 4 6 8 4 2
7 6 5 5 5 4 7 6 7 7 7 7 7 7 7 7 7 7 6 5 3 4 3 2 2 3 3 4 3 4 2 1 3 3 3 2 1 1 1 2 4 4 5
3 4 5 4 5 7 6 7 7 7 7 8 8 7 7 8 8 7 6 3 3 2 2 2 3 3 3 5 5 4 3 2 2 1 1 2 3 5 5 3 3 2 3
2 5 6 5 6 7 6 7 8 9 10 9 9 8 8 8 8 7 7 4 3 3 3 2 3 6 4 6 7 5 2 2 2 1 2 6 5 6 6 4 4 4 2
4 4 5 5 6 6 6 8 8 12 8 8 7 8 8 8 7 7 4 5 5 4 3 3 4 5 5 5 8 8 3 3 2 3 3 3 8 7 6 7 4 5 5
4 4 4 5 6 5 6 6 9 5 7 8 8 7 7 5 6 9 6 5 5 4 4 3 4 4 4 8 8 11 10 7 4 4 3 4 9 8 7 6 7 9 6
3 3 4 6 6 6 3 6 5 7 7 8 7 7 7 7 7 7 6 4 5 3 3 3 4 4 3 3 10 11 13 12 5 3 6 9 10 10 7 8 7 8 4
2 2 4 6 7 7 5 2 6 6 7 7 7 6 6 5 5 4 4 4 4 4 4 4 4 3 3 4 4 4 5 9 6 6 4 5 7 8 5 5 5 3 4
2 3 5 5 5 6 6 6 5 6 7 6 5 5 4 5 5 4 5 4 4 5 4 4 4 4 4 5 8 8 5 4 5 4 2 1 2 3 3 3 4 2 3
3 4 5 5 5 6 6 6 5 5 6 5 4 4 4 4 4 4 3 8 8 9 11 11 7 4 11 9 10 14 14 13 12 4 3 3 4 5 4 4 4 4 6
Wind_Direction
244 245 202 236 235 201 179 176 179 190 172 160 158 171 187 157 189 198 191 199 191 186 175 176 179 175 179 186 181 190 218 238 181 257 259 293 291 342 342 330 291 100 86
250 247 231 201 193 209 212 188 192 184 195 182 181 164 157 161 167 214 201 187 178 176 183 175 183 188 174 174 176 174 193 210 175 227 335 331 334 1 7 30 77 59 66
228 221 217 216 217 198 201 205 199 197 201 187 121 114 70 83 137 208 195 181 165 154 152 166 188 194 145 221 162 186 179 214 156 206 189 310 243 301 46 28 25 97 63
227 236 227 221 204 224 214 207 199 198 201 164 175 193 211 206 220 181 190 208 185 183 185 186 189 196 188 214 198 238 216 225 188 232 221 246 179 225 295 33 53 26 102
215 221 224 216 217 217 203 190 195 178 176 185 198 198 197 220 216 182 177 175 182 159 174 229 168 136 60 33 356 322 259 252 155 180 115 277 282 221 208 260 194 95 48
239 224 216 229 235 186 170 180 178 204 184 175 194 196 213 212 197 183 176 110 40 351 17 16 23 91 106 92 107 290 276 248 189 185 245 209 226 255 218 229 213 175 157
223 219 217 206 209 189 186 193 205 203 183 186 184 187 211 212 207 207 181 143 133 141 108 69 122 109 108 107 93 337 298 287 244 158 256 264 263 280 251 239 229 193 149
209 205 215 208 209 217 194 183 192 194 174 186 193 170 161 182 185 180 150 145 163 155 135 121 78 304 82 113 83 55 318 314 313 313 261 273 279 269 264 258 251 244 167
186 209 219 213 204 196 210 191 177 168 163 167 157 164 151 150 143 119 102 112 125 154 135 130 134 113 60 38 63 64 329 327 309 287 283 301 295 279 271 272 266 275 252
53 23 252 238 248 197 147 134 150 166 168 164 167 160 160 153 142 135 130 123 130 125 121 132 121 119 94 70 68 42 311 291 275 272 271 272 273 286 288 273 261 252 274
50 54 49 191 149 122 139 140 163 160 163 156 144 138 140 140 131 129 134 129 114 105 113 131 129 133 139 91 12 337 303 268 275 272 272 278 274 281 280 295 288 269 274
64 30 64 86 146 157 146 167 163 165 158 145 136 129 114 106 110 114 106 127 132 132 119 74 90 79 50 70 60 332 319 299 304 304 317 281 289 291 1 294 265 268 234
114 66 336 81 115 192 186 188 180 168 153 142 134 126 127 128 125 119 124 140 121 88 101 118 132 102 105 30 22 246 9 345 327 305 285 312 303 272 260 298 281 276 245
146 289 290 256 245 238 207 196 193 170 158 148 149 146 150 139 135 124 112 106 96 117 113 123 91 81 68 13 318 13 358 326 309 324 315 268 255 267 231 269 266 238 236
246 228 238 246 217 230 231 201 198 183 167 153 155 169 157 147 136 141 144 129 134 135 107 104 111 137 144 232 270 24 311 283 266 341 340 313 328 264 236 201 228 207 184
268 257 254 261 249 219 217 202 198 188 171 164 173 155 146 148 149 147 148 131 127 102 109 122 170 182 250 311 333 265 267 264 246 253 357 30 2 336 255 248 228 200 179
259 254 247 243 240 234 203 214 193 165 167 168 162 162 156 157 157 142 135 143 143 115 141 164 161 186 252 289 294 299 5 270 244 208 191 201 51 48 49 48 47 66 146
258 270 274 279 269 236 215 179 168 172 170 169 168 162 160 152 145 136 152 145 124 153 143 176 190 199 247 275 226 130 109 227 233 211 191 189 190 116 117 75 55 25 12
269 266 269 264 271 269 238 175 165 159 160 175 174 165 157 150 148 157 156 132 116 132 161 191 189 209 246 247 203 170 166 222 235 219 218 219 221 236 190 131 116 63 36
284 294 298 290 280 273 201 172 171 168 189 182 175 158 154 159 163 160 151 150 140 163 162 228 229 227 231 239 242 186 170 211 227 258 273 250 213 242 221 172 179 168 176
308 315 306 282 284 298 193 185 167 196 181 148 149 153 155 161 158 141 143 150 157 154 145 239 261 246 233 238 246 203 181 201 211 235 258 257 254 230 235 192 203 201 163
334 360 353 336 317 304 184 172 191 146 138 143 148 149 146 145 145 153 146 153 150 168 176 207 247 235 228 236 241 244 206 209 199 220 231 243 251 234 223 219 215 230 164
347 348 8 355 358 354 173 154 154 147 148 140 145 145 139 138 145 152 154 149 159 163 194 211 231 245 223 226 244 242 240 230 204 213 237 239 238 238 236 231 231 223 139
12 7 48 33 13 8 31 118 151 139 132 132 133 132 137 144 144 140 150 149 163 183 203 211 229 238 227 221 214 238 251 255 232 205 242 245 231 224 201 230 251 162 171
12 47 70 60 36 37 42 47 74 105 108 116 125 133 140 148 145 157 167 181 199 191 201 214 213 216 238 233 221 214 216 216 218 160 128 196 203 208 210 218 237 222 208
24 60 63 76 56 59 58 54 62 91 111 116 132 150 144 148 153 161 189 222 223 224 237 237 219 238 249 253 239 231 232 230 221 180 174 194 208 215 208 211 219 213 224